Back to catalog

HULIANWANG DIGUI-172

AliveScienceLEO
NORAD 69575·PAYLOAD·🇨🇳 China

Launched Jun 17, 2026 from Wenchang Space Launch Site

Loading…

Next Passes (next 24 hours)

TLE

FreshSource: Space-Track

Epoch: Sep 14, 2026, 01:50 UTC

1 69575U 26137D   26257.07656363 -.00000098  00000-0  56852-4 0  9997
2 69575  49.9965 277.0825 0000187 321.6330  38.4529 13.29326173 12158

Track HULIANWANG DIGUI-172 in real time with AllMySat

Download on the App Store